[[{"header":{"parameterUnit":"m.s-1","parameterCategory":2,"la1":30.2992,"la2":30.254,"lo1":-89.0895,"lo2":-89.0443,"dy":0.0025,"dx":0.0025,"nx":19,"ny":19,"refTime":"2026-04-04T09:00:00:Z","depth":"0","parameterNumber":2,"parameterNumberName":"U-component_of_CURRENTS"},"data":[0,0,0,-0.1807,-0.181,-0.2035,-0.2036,-0.2214,-0.2215,0,0,0,0,0,0,0,0,0,0,0,-0.1724,-0.1725,-0.1806,-0.1811,-0.2035,-0.2036,-0.2214,-0.2215,0,0,0,0,0,0,0,0,0,0,0,-0.1724,-0.1725,-0.1726,-0.1811,-0.2034,-0.2036,-0.2213,-0.2078,0,0,0,0,0,0,0,0,0,0,-0.1877,-0.1812,-0.1725,-0.1726,-0.1813,-0.2034,-0.2036,-0.2073,-0.2087,-0.2072,0,-0.2089,0,-0.2142,-0.2221,-0.2222,0,0,0,-0.1841,-0.1801,-0.185,-0.1726,-0.1814,-0.2034,-0.1942,-0.2082,-0.2097,-0.2088,-0.2092,-0.21,-0.2145,-0.2222,-0.2222,-0.2251,-0.2251,0,0,-0.1828,-0.1781,-0.184,-0.1859,-0.1848,-0.1935,-0.1949,-0.2093,-0.21,-0.2093,-0.2105,-0.2148,-0.2223,-0.2223,-0.2252,-0.2251,0,0,0,-0.1773,-0.1772,-0.1822,-0.185,-0.1892,-0.194,-0.1957,-0.2095,-0.2108,-0.2107,-0.215,-0.2223,-0.2224,-0.2252,-0.2252,-0.2229,0,0,0,-0.1767,-0.1738,-0.1815,-0.1792,-0.1889,-0.2013,-0.1955,-0.2098,-0.2117,-0.2149,-0.2223,-0.2225,-0.2253,-0.2252,-0.223,-0.2204,0,0,0,-0.1719,-0.1734,-0.175,-0.1789,-0.1873,-0.2012,-0.2037,-0.2105,-0.214,-0.2222,-0.2226,-0.2253,-0.2252,-0.2232,-0.2207,-0.21,0,0,0,-0.1679,-0.1762,-0.1748,-0.1865,-0.187,-0.2019,-0.2037,-0.216,-0.2234,-0.2224,-0.2253,-0.2252,-0.2232,-0.2208,-0.2103,-0.1963,-0.1937,0,0,-0.1778,-0.1772,-0.185,-0.1845,-0.1984,-0.1991,-0.2098,-0.2192,-0.22,-0.2204,-0.2207,-0.223,-0.2207,-0.2101,-0.1904,-0.1879,0,0,0,-0.1881,-0.1917,-0.1967,-0.2035,-0.211,-0.2116,-0.22,-0.2186,-0.2198,-0.2232,-0.2215,-0.2201,-0.2134,-0.2057,-0.2037,-0.1966,-0.2247,-0.2247,-0.2247,-0.1919,-0.1982,-0.2077,-0.2135,-0.2184,-0.2209,-0.2204,-0.2175,-0.2213,-0.218,-0.2172,-0.2062,-0.1981,-0.1964,-0.1895,-0.2169,-0.2169,-0.2169,-0.2169,-0.2026,-0.2056,-0.2095,-0.2205,-0.2174,-0.2212,-0.2168,-0.2157,-0.2073,-0.2122,-0.2058,-0.2025,-0.1941,-0.1875,-0.2167,-0.2168,-0.2168,-0.2168,-0.2168,-0.2004,-0.2014,-0.209,-0.2149,-0.2147,-0.2155,-0.2058,-0.2055,-0.2027,-0.1981,-0.1844,-0.1844,-0.1788,-0.1936,-0.1935,-0.1934,-0.1934,-0.1933,-0.1933,-0.1907,-0.1983,-0.1991,-0.2069,-0.205,-0.2015,-0.1973,-0.1911,-0.181,-0.1779,-0.1778,-0.1724,-0.1989,-0.2001,-0.1924,-0.1926,-0.1927,-0.1928,-0.1928,-0.1849,-0.1848,-0.1855,-0.1849,-0.1822,-0.1712,-0.1741,-0.16,-0.1541,-0.1457,-0.1431,-0.1647,-0.1621,-0.1636,-0.1639,-0.1471,-0.1471,-0.1471,-0.1471,-0.1733,-0.1762,-0.1683,-0.1626,-0.156,-0.1543,-0.1328,-0.1271,-0.1208,-0.1149,-0.1207,-0.1246,-0.1268,-0.1227,-0.1251,-0.1248,-0.0985,-0.0985,-0.0984,-0.1639,-0.163,-0.1523,-0.1504,-0.1432,-0.1329,-0.1118,-0.0976,-0.0924,-0.0965,-0.1133,-0.1153,-0.1222,-0.1262,-0.1214,-0.1254,-0.1256,0,0]},{"header":{"parameterUnit":"m.s-1","parameterCategory":2,"la1":30.2992,"la2":30.254,"lo1":-89.0895,"lo2":-89.0443,"dy":0.0025,"dx":0.0025,"nx":19,"ny":19,"refTime":"2026-04-04T09:00:00:Z","depth":"0","parameterNumber":3,"parameterNumberName":"V-component_of_CURRENTS"},"data":[0,0,0,-0.0282,-0.0282,-0.0204,-0.0203,0.0065,0.0068,0,0,0,0,0,0,0,0,0,0,0,-0.0293,-0.0293,-0.0282,-0.0282,-0.0204,-0.0203,0.0065,0.0068,0,0,0,0,0,0,0,0,0,0,0,-0.0293,-0.0293,-0.0293,-0.0282,-0.0204,-0.0203,0.0064,-0.0027,0,0,0,0,0,0,0,0,0,0,-0.012,-0.0171,-0.0293,-0.0293,-0.0281,-0.0204,-0.0203,-0.0033,-0.0022,0.0066,0,0.0061,0,0.0051,0.0086,0.0087,0,0,0,-0.0244,-0.0181,-0.0166,-0.0293,-0.0281,-0.0205,-0.0228,-0.0028,-0.0014,0.0082,0.0064,0.0073,0.0056,0.0088,0.0089,0.0322,0.0322,0,0,-0.0248,-0.0261,-0.0177,-0.0159,-0.0279,-0.0231,-0.0226,-0.0021,-0.0007,0.0065,0.0078,0.006,0.0089,0.0092,0.0321,0.0322,0,0,0,-0.0286,-0.0264,-0.0257,-0.0168,-0.0179,-0.023,-0.0224,-0.0015,-0.0016,0.008,0.0063,0.0091,0.0094,0.0321,0.0322,0.025,0,0,0,-0.0287,-0.0289,-0.0259,-0.0263,-0.0185,-0.0122,-0.0223,-0.0029,-0.0008,0.0062,0.0091,0.0097,0.032,0.0321,0.025,0.0203,0,0,0,-0.0293,-0.029,-0.0289,-0.0265,-0.0252,-0.0126,-0.0114,-0.0025,-0.0019,0.0087,0.0098,0.032,0.0321,0.0251,0.0206,0.0201,0,0,0,-0.0296,-0.032,-0.0289,-0.0297,-0.0253,-0.0187,-0.0115,-0.0041,0.0042,0.0092,0.032,0.0321,0.0251,0.0207,0.0202,0.022,0.0216,0,0,-0.0334,-0.0324,-0.0326,-0.0298,-0.0265,-0.0193,-0.0111,0.0019,0.0097,0.0271,0.0275,0.025,0.0206,0.0201,0.0289,0.0282,0,0,0,-0.0342,-0.0345,-0.0324,-0.0297,-0.0234,-0.0156,-0.0039,0.0033,0.0166,0.0143,0.0295,0.027,0.0268,0.0284,0.028,0.0407,0.0327,0.0327,0.0327,-0.0397,-0.0363,-0.0348,-0.0292,-0.0234,-0.0106,-0.0029,0.0099,0.0181,0.0223,0.0245,0.0236,0.0254,0.025,0.0383,0.0293,0.0293,0.0293,0.0292,-0.0442,-0.0441,-0.0362,-0.0345,-0.0243,-0.016,0.0008,0.0067,0.0188,0.0237,0.024,0.0249,0.024,0.0384,0.0288,0.0289,0.029,0.029,0.029,-0.0495,-0.0492,-0.0467,-0.0416,-0.0335,-0.0207,-0.0126,-0.0003,0.011,0.0125,0.0174,0.0176,0.0273,0.0133,0.0132,0.0132,0.0132,0.0132,0.0132,-0.0571,-0.0543,-0.0547,-0.0486,-0.0453,-0.0374,-0.0212,-0.0137,0.0003,0.01,0.0101,0.0302,0.0187,0.0159,0.0128,0.0129,0.0129,0.013,0.013,-0.065,-0.0646,-0.0649,-0.0633,-0.0555,-0.0494,-0.036,-0.0178,-0.009,-0.0019,0.0257,0.0108,0.0134,0.014,0.0114,0.0072,0.0072,0.0072,0.0072,-0.0709,-0.0705,-0.0713,-0.07,-0.066,-0.0546,-0.0408,-0.0181,0.0118,0.0276,0.0306,0.0366,0.0362,0.0406,0.0406,0.0388,0.0416,0.0417,0.0418,-0.0742,-0.074,-0.0755,-0.0741,-0.0699,-0.0591,-0.041,-0.0064,0.0341,0.0445,0.048,0.0465,0.0568,0.0552,0.0634,0.0623,0.0598,0,0]}],[{"header":{"parameterUnit":"m.s-1","parameterCategory":2,"la1":30.2992,"la2":30.254,"lo1":-89.0895,"lo2":-89.0443,"dy":0.0025,"dx":0.0025,"nx":19,"ny":19,"refTime":"2026-04-04T09:00:00:Z","depth":"2","parameterNumber":2,"parameterNumberName":"U-component_of_CURRENTS"},"data":[0,0,0,-0.1507,-0.151,-0.1651,-0.1652,-0.1777,-0.1778,0,0,0,0,0,0,0,0,0,0,0,-0.1453,-0.1453,-0.1507,-0.151,-0.1651,-0.1652,-0.1777,-0.1778,0,0,0,0,0,0,0,0,0,0,0,-0.1453,-0.1453,-0.1454,-0.151,-0.1651,-0.1652,-0.1777,-0.1688,0,0,0,0,0,0,0,0,0,0,-0.156,-0.1514,-0.1453,-0.1454,-0.1511,-0.165,-0.1652,-0.1684,-0.1693,-0.1692,0,-0.1703,0,-0.1737,-0.1784,-0.1784,0,0,0,-0.1526,-0.1506,-0.1539,-0.1454,-0.1512,-0.165,-0.1592,-0.169,-0.17,-0.1704,-0.1705,-0.171,-0.1739,-0.1784,-0.1785,-0.1825,-0.1825,0,0,-0.1518,-0.1487,-0.1532,-0.1545,-0.1533,-0.1587,-0.1596,-0.1697,-0.1702,-0.1705,-0.1714,-0.1741,-0.1785,-0.1785,-0.1825,-0.1825,0,0,0,-0.1485,-0.1481,-0.1514,-0.1539,-0.1566,-0.1591,-0.1601,-0.1698,-0.1707,-0.1715,-0.1743,-0.1785,-0.1786,-0.1825,-0.1825,-0.1804,0,0,0,-0.1481,-0.1461,-0.151,-0.1494,-0.1564,-0.1642,-0.1599,-0.17,-0.1713,-0.1742,-0.1785,-0.1787,-0.1826,-0.1825,-0.1805,-0.1804,0,0,0,-0.1449,-0.1458,-0.1469,-0.1492,-0.1546,-0.1641,-0.1658,-0.1704,-0.1728,-0.1784,-0.1787,-0.1826,-0.1825,-0.1806,-0.1806,-0.1718,0,0,0,-0.1422,-0.1468,-0.1468,-0.153,-0.1545,-0.1643,-0.1658,-0.1747,-0.1799,-0.1786,-0.1826,-0.1825,-0.1807,-0.1807,-0.172,-0.1576,-0.1555,0,0,-0.1474,-0.1473,-0.1514,-0.1518,-0.16,-0.1625,-0.169,-0.1764,-0.1782,-0.1792,-0.1794,-0.1805,-0.1806,-0.1719,-0.1551,-0.153,0,0,0,-0.1529,-0.1548,-0.1575,-0.1619,-0.1675,-0.169,-0.1761,-0.1761,-0.1784,-0.1806,-0.1802,-0.1803,-0.1748,-0.1666,-0.1649,-0.1823,-0.1823,-0.1823,-0.1823,-0.1541,-0.1581,-0.1628,-0.1668,-0.171,-0.1749,-0.1754,-0.1755,-0.1789,-0.178,-0.1783,-0.1703,-0.1617,-0.1602,-0.1776,-0.1776,-0.1775,-0.1775,-0.1775,-0.1578,-0.1584,-0.1625,-0.1688,-0.1695,-0.1738,-0.1736,-0.1743,-0.1705,-0.1751,-0.1697,-0.1646,-0.1582,-0.1774,-0.1774,-0.1774,-0.1774,-0.1774,-0.1775,-0.1543,-0.1543,-0.1597,-0.1641,-0.1668,-0.1704,-0.1656,-0.1686,-0.1684,-0.1656,-0.1522,-0.1521,-0.1667,-0.1615,-0.1614,-0.1614,-0.1613,-0.1613,-0.1613,-0.1455,-0.1504,-0.1513,-0.1578,-0.1587,-0.1596,-0.1611,-0.1575,-0.1508,-0.1485,-0.1483,-0.1648,-0.1653,-0.1657,-0.1607,-0.1608,-0.1609,-0.1609,-0.161,-0.1374,-0.1395,-0.1396,-0.141,-0.1423,-0.1355,-0.1415,-0.1312,-0.1277,-0.1202,-0.1353,-0.1362,-0.1342,-0.1354,-0.135,-0.1223,-0.1223,-0.1223,-0.1223,-0.1281,-0.1304,-0.1258,-0.1236,-0.1213,-0.1222,-0.1058,-0.1006,-0.1026,-0.1019,-0.1028,-0.1047,-0.1066,-0.1034,-0.1054,-0.1045,-0.0839,-0.0839,-0.0839,-0.1189,-0.1194,-0.1122,-0.1131,-0.111,-0.1043,-0.0874,-0.0726,-0.0703,-0.0829,-0.1022,-0.1186,-0.1241,-0.126,-0.1237,-0.1258,-0.1255,0,0]},{"header":{"parameterUnit":"m.s-1","parameterCategory":2,"la1":30.2992,"la2":30.254,"lo1":-89.0895,"lo2":-89.0443,"dy":0.0025,"dx":0.0025,"nx":19,"ny":19,"refTime":"2026-04-04T09:00:00:Z","depth":"2","parameterNumber":3,"parameterNumberName":"V-component_of_CURRENTS"},"data":[0,0,0,-0.0369,-0.0369,-0.0363,-0.0363,-0.0212,-0.021,0,0,0,0,0,0,0,0,0,0,0,-0.0361,-0.0361,-0.0369,-0.0369,-0.0363,-0.0363,-0.0212,-0.021,0,0,0,0,0,0,0,0,0,0,0,-0.0361,-0.0361,-0.0361,-0.037,-0.0363,-0.0363,-0.0212,-0.0248,0,0,0,0,0,0,0,0,0,0,-0.027,-0.0294,-0.0361,-0.0361,-0.037,-0.0363,-0.0363,-0.0251,-0.0246,-0.018,0,-0.0188,0,-0.0204,-0.0199,-0.0198,0,0,0,-0.0351,-0.0299,-0.0298,-0.0361,-0.037,-0.0363,-0.0361,-0.0249,-0.0243,-0.0172,-0.0186,-0.0182,-0.0202,-0.0197,-0.0197,-0.0043,-0.0043,0,0,-0.0351,-0.0352,-0.0303,-0.0295,-0.0376,-0.0361,-0.0361,-0.0247,-0.0239,-0.0185,-0.0179,-0.0199,-0.0196,-0.0195,-0.0044,-0.0043,0,0,0,-0.0365,-0.0352,-0.0356,-0.0299,-0.0315,-0.0361,-0.0361,-0.0244,-0.0247,-0.0178,-0.0197,-0.0195,-0.0193,-0.0044,-0.0044,-0.0111,0,0,0,-0.0364,-0.0361,-0.0357,-0.0356,-0.0318,-0.0301,-0.0361,-0.0254,-0.0243,-0.0198,-0.0195,-0.0191,-0.0045,-0.0044,-0.011,-0.0118,0,0,0,-0.036,-0.0361,-0.0364,-0.0356,-0.0364,-0.0304,-0.03,-0.0253,-0.0255,-0.0198,-0.0191,-0.0045,-0.0044,-0.011,-0.0117,-0.0094,0,0,0,-0.0354,-0.0397,-0.0364,-0.0409,-0.0364,-0.0365,-0.0301,-0.0282,-0.0241,-0.0194,-0.0045,-0.0044,-0.0109,-0.0116,-0.0094,-0.0063,-0.0062,0,0,-0.0415,-0.0404,-0.0432,-0.0404,-0.0433,-0.0364,-0.0348,-0.0267,-0.0196,-0.0069,-0.0067,-0.0111,-0.0116,-0.0094,-0.0012,-0.0013,0,0,0,-0.0457,-0.0473,-0.0478,-0.0481,-0.0458,-0.04,-0.0327,-0.0268,-0.0164,-0.0172,-0.0073,-0.0073,-0.0058,-0.0038,-0.0038,-0.0039,-0.004,-0.004,-0.004,-0.0523,-0.0517,-0.0549,-0.0526,-0.05,-0.041,-0.0348,-0.0236,-0.0181,-0.0136,-0.0103,-0.0093,-0.0072,-0.0071,-0.0083,-0.0083,-0.0083,-0.0083,-0.0083,-0.0609,-0.0631,-0.0582,-0.0613,-0.0525,-0.0478,-0.0329,-0.0272,-0.0144,-0.0113,-0.0096,-0.0077,-0.0075,-0.0088,-0.0087,-0.0087,-0.0086,-0.0086,-0.0085,-0.0663,-0.0671,-0.0675,-0.0667,-0.0606,-0.0504,-0.0409,-0.0295,-0.0187,-0.0159,-0.0094,-0.0092,-0.0131,-0.0146,-0.0146,-0.0146,-0.0146,-0.0146,-0.0146,-0.0717,-0.072,-0.0736,-0.0717,-0.0686,-0.0605,-0.0441,-0.0355,-0.0212,-0.0131,-0.013,-0.0112,-0.011,-0.013,-0.0145,-0.0145,-0.0146,-0.0146,-0.0146,-0.0796,-0.0784,-0.0808,-0.0798,-0.0731,-0.0655,-0.0524,-0.0327,-0.0228,-0.0153,-0.01,-0.0102,-0.0064,-0.0062,-0.0079,-0.0079,-0.0079,-0.0079,-0.0079,-0.0831,-0.0834,-0.0844,-0.0827,-0.0778,-0.067,-0.0506,-0.0295,-0.0121,-0.0039,-0.0041,-0.0041,-0.0045,-0.0005,-0.0005,-0.002,-0.0005,-0.0005,-0.0005,-0.0859,-0.0857,-0.0864,-0.0848,-0.0792,-0.0677,-0.0489,-0.0188,0.0029,-0.0003,-0.0039,-0.0072,-0.0078,-0.0081,-0.0022,-0.0021,-0.0046,0,0]}],[{"header":{"parameterUnit":"m.s-1","parameterCategory":2,"la1":30.2992,"la2":30.254,"lo1":-89.0895,"lo2":-89.0443,"dy":0.0025,"dx":0.0025,"nx":19,"ny":19,"refTime":"2026-04-04T09:00:00:Z","depth":"4","parameterNumber":2,"parameterNumberName":"U-component_of_CURRENTS"},"data":[0,0,0,-0.101,-0.1011,-0.1046,-0.1046,-0.103,-0.103,0,0,0,0,0,0,0,0,0,0,0,-0.0996,-0.0997,-0.101,-0.1012,-0.1046,-0.1046,-0.103,-0.103,0,0,0,0,0,0,0,0,0,0,0,-0.0996,-0.0997,-0.0997,-0.1012,-0.1046,-0.1046,-0.103,-0.1017,0,0,0,0,0,0,0,0,0,0,-0.099,-0.0989,-0.0997,-0.0997,-0.1012,-0.1046,-0.1046,-0.1017,-0.1018,-0.1,0,-0.1013,0,-0.1025,-0.1028,-0.1028,0,0,0,-0.1003,-0.0988,-0.1,-0.0997,-0.1012,-0.1046,-0.1028,-0.1018,-0.1019,-0.1001,-0.1013,-0.1013,-0.1025,-0.1028,-0.1028,-0.1003,-0.1003,0,0,-0.1001,-0.0997,-0.1,-0.1001,-0.103,-0.1027,-0.1029,-0.1019,-0.102,-0.1013,-0.1013,-0.1024,-0.1028,-0.1028,-0.1003,-0.1003,0,0,0,-0.1001,-0.0996,-0.1008,-0.1001,-0.1014,-0.1028,-0.103,-0.1021,-0.1026,-0.1013,-0.1024,-0.1028,-0.1027,-0.1003,-0.1003,-0.1009,0,0,0,-0.1,-0.0997,-0.1008,-0.1005,-0.1015,-0.1026,-0.1032,-0.1027,-0.1027,-0.1024,-0.1028,-0.1027,-0.1003,-0.1003,-0.1009,-0.0997,0,0,0,-0.0993,-0.0996,-0.1003,-0.1005,-0.1024,-0.1027,-0.1032,-0.1027,-0.1033,-0.1028,-0.1027,-0.1003,-0.1003,-0.1009,-0.0997,-0.1003,0,0,0,-0.0982,-0.0986,-0.1003,-0.1004,-0.1024,-0.1029,-0.1032,-0.1037,-0.1034,-0.1028,-0.1003,-0.1003,-0.1009,-0.0997,-0.1003,-0.0899,0,0,0,-0.0976,-0.0985,-0.0982,-0.0999,-0.0997,-0.1024,-0.1016,-0.1019,-0.1022,-0.1001,-0.1001,-0.1009,-0.0997,-0.1003,-0.0886,0,0,0,0,-0.0972,-0.0963,-0.0967,-0.0971,-0.0991,-0.0992,-0.101,-0.1017,-0.1017,-0.1022,-0.1002,-0.0994,-0.0998,-0.0937,-0.1002,-0.1002,-0.1002,-0.1002,-0.1002,-0.0933,-0.094,-0.0926,-0.0934,-0.0946,-0.0969,-0.0964,-0.0971,-0.1003,-0.1009,-0.0995,-0.0995,-0.0931,-0.0998,-0.0998,-0.0998,-0.0998,-0.0998,-0.0998,-0.0879,-0.0851,-0.0877,-0.087,-0.0896,-0.0908,-0.0926,-0.095,-0.0966,-0.0991,-0.0996,-0.0942,-0.0999,-0.0999,-0.0999,-0.0999,-0.0999,-0.0998,-0.0998,-0.0818,-0.0805,-0.0821,-0.0816,-0.0838,-0.0884,-0.0894,-0.093,-0.096,-0.0957,-0.0926,-0.0995,-0.0999,-0.0996,-0.0996,-0.0996,-0.0996,-0.0996,-0.0996,-0.0743,-0.0753,-0.0747,-0.076,-0.079,-0.0836,-0.0901,-0.0916,-0.096,-0.0907,-0.0986,-0.0994,-0.0994,-0.0999,-0.0995,-0.0995,-0.0995,-0.0995,-0.0995,-0.0626,-0.0665,-0.0643,-0.0667,-0.0726,-0.0763,-0.0853,-0.0865,-0.0869,-0.0839,-0.0868,-0.0875,-0.0861,-0.0864,-0.0864,-0.082,-0.0819,-0.0818,0,-0.0552,-0.0566,-0.0557,-0.0585,-0.0624,-0.0711,-0.0717,-0.0757,-0.0773,-0.0741,-0.0866,-0.0899,-0.0903,-0.0889,-0.089,-0.0889,0,0,0,-0.0464,-0.0484,-0.0462,-0.0519,-0.0579,-0.0632,-0.0714,-0.0694,-0.0769,-0.0747,-0.0783,-0.0792,-0.094,-0.0994,-0.0988,-0.0988,-0.0995,0,0]},{"header":{"parameterUnit":"m.s-1","parameterCategory":2,"la1":30.2992,"la2":30.254,"lo1":-89.0895,"lo2":-89.0443,"dy":0.0025,"dx":0.0025,"nx":19,"ny":19,"refTime":"2026-04-04T09:00:00:Z","depth":"4","parameterNumber":3,"parameterNumberName":"V-component_of_CURRENTS"},"data":[0,0,0,-0.0308,-0.031,-0.0376,-0.0376,-0.0418,-0.0418,0,0,0,0,0,0,0,0,0,0,0,-0.0283,-0.0284,-0.0308,-0.031,-0.0376,-0.0376,-0.0418,-0.0418,0,0,0,0,0,0,0,0,0,0,0,-0.0283,-0.0284,-0.0284,-0.031,-0.0376,-0.0376,-0.0418,-0.0379,0,0,0,0,0,0,0,0,0,0,-0.032,-0.0306,-0.0284,-0.0284,-0.0311,-0.0376,-0.0376,-0.0377,-0.0381,-0.0376,0,-0.0387,0,-0.0403,-0.042,-0.042,0,0,0,-0.0311,-0.0302,-0.0318,-0.0284,-0.0311,-0.0376,-0.0346,-0.038,-0.0384,-0.038,-0.0388,-0.039,-0.0404,-0.042,-0.042,-0.0478,-0.0479,0,0,-0.0307,-0.0297,-0.0315,-0.0321,-0.0329,-0.0344,-0.0348,-0.0383,-0.0388,-0.0388,-0.0391,-0.0405,-0.042,-0.0421,-0.0478,-0.0478,0,0,0,-0.0296,-0.0295,-0.031,-0.0318,-0.0334,-0.0346,-0.0351,-0.0386,-0.0391,-0.0391,-0.0405,-0.0421,-0.0421,-0.0477,-0.0478,-0.0492,0,0,0,-0.0294,-0.0288,-0.0309,-0.0304,-0.0333,-0.0368,-0.0353,-0.0389,-0.0393,-0.0405,-0.0421,-0.0421,-0.0477,-0.0478,-0.0491,-0.0482,0,0,0,-0.028,-0.0287,-0.0294,-0.0303,-0.0332,-0.0368,-0.0375,-0.039,-0.0401,-0.042,-0.0421,-0.0477,-0.0478,-0.049,-0.048,-0.0405,0,0,0,-0.0268,-0.0318,-0.0294,-0.0357,-0.0331,-0.0406,-0.0375,-0.043,-0.0454,-0.0421,-0.0477,-0.0478,-0.0489,-0.0479,-0.0405,-0.0368,0,0,0,-0.0332,-0.0325,-0.0365,-0.0347,-0.0427,-0.0397,-0.0462,-0.0473,-0.0462,-0.0461,-0.0463,-0.0491,-0.048,-0.0405,-0.0431,0,0,0,0,-0.0388,-0.0412,-0.0435,-0.0471,-0.0502,-0.0501,-0.0515,-0.0502,-0.0503,-0.048,-0.0509,-0.0501,-0.0452,-0.0435,-0.0483,-0.0483,-0.0483,-0.0483,-0.0483,-0.0449,-0.0471,-0.0534,-0.0556,-0.0581,-0.0583,-0.0576,-0.0555,-0.0549,-0.0547,-0.0526,-0.0498,-0.0487,-0.055,-0.055,-0.055,-0.055,-0.055,-0.055,-0.0536,-0.0569,-0.0578,-0.0646,-0.063,-0.0661,-0.0618,-0.0597,-0.0538,-0.0555,-0.0506,-0.0472,-0.0552,-0.0552,-0.0552,-0.0551,-0.0551,-0.0551,-0.0551,-0.0569,-0.0585,-0.0625,-0.0678,-0.0693,-0.068,-0.0625,-0.0593,-0.0542,-0.0509,-0.0426,-0.0479,-0.0456,-0.0461,-0.0461,-0.0461,-0.046,-0.046,-0.046,-0.0575,-0.0614,-0.0653,-0.07,-0.0709,-0.0688,-0.0614,-0.0545,-0.0481,-0.0422,-0.0484,-0.0467,-0.0469,-0.045,-0.0454,-0.0455,-0.0456,-0.0457,-0.0457,-0.0607,-0.0613,-0.0662,-0.0684,-0.0694,-0.0662,-0.0604,-0.0445,-0.0347,-0.027,-0.0354,-0.0361,-0.033,-0.0335,-0.0309,-0.0272,-0.0272,-0.0271,0,-0.0601,-0.0617,-0.0655,-0.0669,-0.0649,-0.0634,-0.0489,-0.0399,-0.0313,-0.0322,-0.0354,-0.0458,-0.046,-0.0436,-0.0439,-0.0415,0,0,0,-0.0598,-0.0611,-0.0625,-0.0653,-0.063,-0.0511,-0.0446,-0.0383,-0.0353,-0.0229,-0.0257,-0.0261,-0.0396,-0.0439,-0.0405,-0.0409,-0.0374,0,0]}]]